Satellite-Ground Cal/Val Region Overpasses Predictions

Prediction of Satellite NPP Overpassing Cal/Val Region: PacNW

Region Location: (Latitude: 10.00, Longitude: 139.50) to (Latitude: 22.70, Longitude: 165.60).

Table of predicted overpasses for the next 14.0 days since TLE Epoch: 12/3/2022
Interval Starting Time Starting Location Ending Time Ending Location
1 12/03/2022 03:24:19 ( 10.03, 148.88) 12/03/2022 03:27:54 ( 22.65, 145.87)
2 12/03/2022 15:56:12 ( 22.68, 146.12) 12/03/2022 15:59:47 ( 10.05, 143.12)
3 12/04/2022 03:05:18 ( 10.02, 153.63) 12/04/2022 03:08:54 ( 22.70, 150.61)
4 12/04/2022 15:37:12 ( 22.68, 150.88) 12/04/2022 15:40:48 ( 10.01, 147.86)
5 12/05/2022 02:46:18 ( 10.01, 158.39) 12/05/2022 02:49:54 ( 22.69, 155.37)
6 12/05/2022 15:18:11 ( 22.69, 155.64) 12/05/2022 15:21:47 ( 10.01, 152.61)
7 12/06/2022 02:27:17 ( 10.00, 163.15) 12/06/2022 02:30:53 ( 22.68, 160.12)
8 12/06/2022 14:59:12 ( 22.64, 160.38) 12/06/2022 15:02:47 ( 10.02, 157.37)
9 12/07/2022 02:11:04 ( 19.80, 165.59) 12/07/2022 02:11:53 ( 22.67, 164.88)
10 12/07/2022 03:49:48 ( 10.05, 142.51) 12/07/2022 03:53:23 ( 22.67, 139.50)
11 12/07/2022 14:40:11 ( 22.65, 165.13) 12/07/2022 14:43:46 ( 10.03, 162.13)
12 12/07/2022 16:21:41 ( 22.65, 139.76) 12/07/2022 16:21:58 ( 21.65, 139.51)
13 12/08/2022 03:30:47 ( 10.05, 147.27) 12/08/2022 03:34:22 ( 22.67, 144.26)
14 12/08/2022 16:02:41 ( 22.66, 144.51) 12/08/2022 16:06:16 ( 10.04, 141.51)
15 12/09/2022 03:11:47 ( 10.04, 152.02) 12/09/2022 03:15:22 ( 22.66, 149.02)
16 12/09/2022 15:43:41 ( 22.66, 149.27) 12/09/2022 15:47:16 ( 10.04, 146.26)
17 12/10/2022 02:52:46 ( 10.04, 156.78) 12/10/2022 02:56:21 ( 22.66, 153.77)
18 12/10/2022 15:24:40 ( 22.66, 154.02) 12/10/2022 15:28:15 ( 10.04, 151.02)
19 12/11/2022 02:33:46 ( 10.03, 161.53) 12/11/2022 02:37:21 ( 22.65, 158.52)
20 12/11/2022 15:05:40 ( 22.67, 158.78) 12/11/2022 15:09:15 ( 10.05, 155.77)
21 12/12/2022 02:15:36 ( 13.03, 165.60) 12/12/2022 02:18:20 ( 22.65, 163.28)
22 12/12/2022 03:56:15 ( 10.03, 140.91) 12/12/2022 03:57:58 ( 16.08, 139.50)
23 12/12/2022 14:46:39 ( 22.67, 163.53) 12/12/2022 14:50:14 ( 10.05, 160.52)
24 12/13/2022 03:37:15 ( 10.03, 145.67) 12/13/2022 03:40:50 ( 22.65, 142.66)
25 12/13/2022 14:30:51 ( 11.41, 165.59) 12/13/2022 14:31:14 ( 10.05, 165.28)
26 12/13/2022 16:09:09 ( 22.67, 142.91) 12/13/2022 16:12:44 ( 10.05, 139.90)
27 12/14/2022 03:18:14 ( 10.03, 150.42) 12/14/2022 03:21:49 ( 22.65, 147.41)
28 12/14/2022 15:50:08 ( 22.67, 147.67) 12/14/2022 15:53:43 ( 10.06, 144.66)
29 12/15/2022 02:59:14 ( 10.03, 155.17) 12/15/2022 03:02:49 ( 22.65, 152.17)
30 12/15/2022 15:31:08 ( 22.68, 152.42) 12/15/2022 15:34:43 ( 10.06, 149.41)
31 12/16/2022 02:40:13 ( 10.03, 159.93) 12/16/2022 02:43:48 ( 22.65, 156.92)
